Flag for USA

Past Weather in Little Washington Neighborhood Park, Maryland, USA — Yesterday and Last 2 Weeks

Now
72 °F

Passing clouds.


Feels Like: 70 °F
Forecast: 82 / 68 °F
Wind: 8 mph from South

Location: Reagan National Airport

Current Time: May 23, 2019 at 9:31:33 pm

Latest Report: May 23, 2019 at 8:52 pm


Visibility: 10 mi

Pressure: 29.97 "Hg

Humidity: 87%

Dew Point: 68 °F

Location of Little Washington Neighborhood ParkLocation

Past Weather in Little Washington Neighborhood Park — Graph

°F

Little Washington Neighborhood Park Temperature Yesterday

Maximum temperature yesterday: 72 °F (at 4:52 pm)
Minimum temperature yesterday: 58 °F (at 4:52 am)
Average temperature yesterday: 65 °F

High & Low Weather Summary for the Past Weeks

 TemperatureHumidityPressure
High90 °F (May 20, 3:56 pm)94% (May 18, 6:52 am)30.29 "Hg (May 18, 6:52 am)
Low50 °F (May 13, 2:26 am)27% (May 15, 2:52 pm)29.74 "Hg (May 12, 2:52 pm)
Average66 °F68%29.96 "Hg
* Reported May 8 7:52 pm — May 23 7:52 pm, Little Washington Neighborhood Park. Weather by CustomWeather, © 2019

Note: Actual official high and low records may vary slightly from our data, if they occured in-between our weather recording intervals... More about our weather records

Advertising

Little Washington Neighborhood Park Weather History for the Previous 24 Hours

Scroll right to see more
 ConditionsComfort  
Time TempWeatherWind HumidityBarometerVisibility
7:52 pm
Thu, May 23
72 °FBroken clouds.9 mph87%29.97 "Hg10 mi
6:52 pm72 °FPartly sunny.9 mph84%29.98 "Hg10 mi
5:52 pm73 °FMostly cloudy.9 mph81%29.99 "Hg10 mi
5:43 pm73 °FMostly cloudy.8 mph79%30.00 "Hg10 mi
5:01 pm72 °FThunderstorms. Broken clouds.15 mph81%30.01 "Hg10 mi
4:16 pm70 °FMore clouds than sun.7 mph84%30.04 "Hg10 mi
4:00 pm69 °FThunderstorms. Mostly cloudy.15 mph87%30.06 "Hg6 mi
2:52 pm83 °FPartly sunny.17 mph63%30.01 "Hg10 mi
1:52 pm82 °FPartly sunny.14 mph63%30.05 "Hg10 mi
12:52 pm78 °FBroken clouds.10 mph64%30.09 "Hg10 mi
11:52 am75 °FBroken clouds.12 mph66%30.12 "Hg10 mi
10:52 am72 °FBroken clouds.9 mph66%30.14 "Hg10 mi
9:52 am71 °FPartly sunny.13 mph61%30.15 "Hg10 mi
8:52 am68 °FPartly sunny.10 mph63%30.16 "Hg9 mi
7:52 am66 °FPartly sunny.15 mph63%30.17 "Hg8 mi
6:52 am63 °FScattered clouds.10 mph63%30.17 "Hg7 mi
5:52 am62 °FScattered clouds.13 mph62%30.17 "Hg5 mi
4:52 am62 °FPartly cloudy.8 mph62%30.19 "Hg5 mi
3:52 am62 °FPartly cloudy.9 mph65%30.20 "Hg5 mi
2:52 am63 °FPassing clouds.10 mph63%30.20 "Hg5 mi
1:52 am63 °FPassing clouds.10 mph65%30.22 "Hg6 mi
12:52 am64 °FPassing clouds.9 mph61%30.24 "Hg6 mi
11:52 pm
Wed, May 22
64 °FPassing clouds.9 mph61%30.24 "Hg9 mi
10:52 pm66 °FPartly cloudy.10 mph54%30.26 "Hg8 mi
9:52 pm67 °FPassing clouds.12 mph49%30.25 "Hg10 mi
Weather by CustomWeather, © 2019

See weather overview